This is the latest recevied weather packets stored in our database for station/object N2XGL-1. If no packets are shown the sender has not sent any weather packets the latest 10 day(s).
| Time | Temp. | Humidity | Pressure | Rain* | Wind** | Luminosity | Snow |
|---|---|---|---|---|---|---|---|
| 1777874861 | 11.67° C | 42% | 1002 hPa | 0 mm | - | - | - |
| 1777874368 | 12.22° C | 38% | 1002 hPa | 0 mm | - | - | - |
| 1777874328 | 12.22° C | 38% | 1002 hPa | 0 mm | - | - | - |
| 1777873813 | 12.78° C | 37% | 1002 hPa | 0 mm | - | - | - |
| 1777873219 | 13.89° C | 38% | 1002 hPa | 0 mm | - | - | - |
| 1777872661 | 13.89° C | 37% | 1002.1 hPa | 0 mm | - | - | - |
| 1777872314 | 14.44° C | 37% | 1001.9 hPa | 0 mm | - | - | - |
| 1777872071 | 14.44° C | 37% | 1001.9 hPa | 0 mm | - | - | - |
| 1777871568 | 14.44° C | 36% | 1001.9 hPa | 0 mm | - | - | - |
| 1777871073 | 15° C | 34% | 1001.9 hPa | 0 mm | - | - | - |
| 1777870558 | 15.56° C | 33% | 1001.9 hPa | 0 mm | - | - | - |
| 1777869958 | 15.56° C | 31% | 1001.9 hPa | 0 mm | - | - | - |
| 1777869371 | 15.56° C | 33% | 1001.8 hPa | 0 mm | - | - | - |
| 1777868778 | 14.44° C | 35% | 1001.8 hPa | 0 mm | - | - | - |
| 1777868292 | 14.44° C | 35% | 1001.5 hPa | 0 mm | - | - | - |
| 1777867769 | 13.89° C | 35% | 1001.6 hPa | 0 mm | - | - | - |
| 1777867188 | 13.89° C | 36% | 1001.6 hPa | 0 mm | - | - | - |
| 1777866633 | 13.89° C | 36% | 1001.6 hPa | 0 mm | - | - | - |
| 1777866148 | 13.89° C | 36% | 1001.6 hPa | 0 mm | - | - | - |
| 1777865638 | 13.89° C | 37% | 1001.7 hPa | 0 mm | - | - | - |
| 1777865101 | 14.44° C | 36% | 1001.7 hPa | 0 mm | - | - | - |
| 1777864610 | 14.44° C | 36% | 1001.7 hPa | 0 mm | - | - | - |
| 1777864538 | 14.44° C | 36% | 1001.7 hPa | 0 mm | - | - | - |
| 1777864445 | 15° C | 35% | 1001.5 hPa | 0 mm | - | - | - |
| 1777863948 | 15° C | 35% | 1001.5 hPa | 0 mm | - | - | - |
* Rain latest hour (hover to see other rain measurements)
** Current wind speed in m/s (hover to see current wind gust speed)